Johnstown, PA

6:36 PM EDT on April 24, 2017 (GMT -0400)
Johnstown-Cambria County

Weather History for KJST - October, 2011

Change the Weather History Date:

Saturday, October 15, 2011

  Actual Average Record
Temperature  
Mean Temperature 49 °F 50 °F  
Max Temperature 54 °F 59 °F 86 °F (1899)
Min Temperature 44 °F 41 °F 27 °F (1957)
Degree Days  
Heating Degree Days 16 15  
Month to date heating degree days 199  
Since 1 July heating degree days 417  
Cooling Degree Days 0 0  
Month to date cooling degree days 0  
Year to date cooling degree days 382  
Moisture  
Dew Point 34 °F    
Average Humidity 61    
Maximum Humidity 82    
Minimum Humidity 35    
Precipitation  
Precipitation 0.00 in 0.10 in 1.78 in (1942)
Month to date precipitation 1.56  
Year to date precipitation 25.85  
Sea Level Pressure  
Sea Level Pressure 29.70 in    
Wind  
Wind Speed 17 mph (WSW)    
Max Wind Speed 32 mph    
Max Gust Speed 46 mph    
Visibility 10 miles    
Events      
T = Trace of Precipitation, MM = Missing Value Source: NWS Daily Summary

Daily Weather History Graph

Daily Weather History Graph

Search for Another Location

Airport or City:

Trip Planner

Search our weather history database for the weather conditions in past years. The results will help you decide how hot, cold, wet, or windy it might be!

Date:

Astronomy

Oct. 15, 2011 Rise Set
Actual Time 7:25 AM EDT 6:35 PM EDT
Civil Twilight 6:58 AM EDT 7:03 PM EDT
Nautical Twilight 6:26 AM EDT 7:34 PM EDT
Astronomical Twilight 5:55 AM EDT 8:06 PM EDT
Moon 8:30 PM EDT (10/15) 10:48 AM EDT (10/15)
Length of Visible Light 12h 04m
Length of Day
11h 10m
Waning Gibbous, 89% of the Moon is Illuminated
Oct 15
Waning Gibbous
Oct 19
Last Quarter
Oct 26
New
Nov 2
First Quarter
Nov 10
Full

Hourly Weather History & Observations

Time (EDT) Temp. Windchill Dew Point Humidity Pressure Visibility Wind Dir Wind Speed Gust Speed Precip Events Conditions
12:54 AM 46.9 °F - 39.9 °F 77% 29.63 in 10.0 mi SW 6.9 mph - N/A   Overcast
1:54 AM 46.9 °F - 39.0 °F 74% 29.62 in 10.0 mi WSW 13.8 mph 19.6 mph N/A   Mostly Cloudy
2:45 AM 46.4 °F 40.4 °F 39.2 °F 76% 29.62 in 10.0 mi WSW 13.8 mph 23.0 mph N/A   Overcast
2:54 AM 46.9 °F - 39.9 °F 77% 29.62 in 10.0 mi WSW 13.8 mph 23.0 mph N/A   Overcast
3:54 AM 46.9 °F - 39.9 °F 77% 29.64 in 10.0 mi WSW 17.3 mph 27.6 mph N/A   Overcast
4:54 AM 46.0 °F 39.6 °F 39.9 °F 79% 29.64 in 10.0 mi WSW 15.0 mph 26.5 mph N/A   Overcast
5:54 AM 45.0 °F 37.6 °F 39.0 °F 80% 29.66 in 10.0 mi WSW 17.3 mph 29.9 mph N/A   Overcast
6:54 AM 44.1 °F 36.5 °F 39.0 °F 82% 29.66 in 10.0 mi WSW 17.3 mph 28.8 mph N/A   Mostly Cloudy
7:54 AM 44.1 °F 35.7 °F 39.0 °F 82% 29.66 in 10.0 mi WSW 20.7 mph 33.4 mph N/A   Overcast
8:54 AM 44.6 °F 36.9 °F 37.4 °F 76% 29.65 in 10.0 mi WSW 18.4 mph 33.4 mph N/A   Overcast
9:54 AM 45.0 °F 36.6 °F 37.0 °F 74% 29.68 in 10.0 mi WSW 21.9 mph 33.4 mph N/A   Overcast
10:54 AM 46.9 °F - 36.0 °F 66% 29.68 in 10.0 mi WSW 19.6 mph 40.3 mph N/A   Overcast
11:06 AM 46.4 °F 37.9 °F 35.6 °F 66% 29.67 in 10.0 mi WSW 25.3 mph 43.7 mph N/A   Overcast
11:54 AM 46.9 °F - 35.1 °F 63% 29.69 in 10.0 mi WSW 28.8 mph 38.0 mph N/A   Overcast
12:54 PM 48.9 °F - 34.0 °F 56% 29.70 in 10.0 mi West 32.2 mph 46.0 mph N/A   Overcast
1:54 PM 50.0 °F - 33.1 °F 52% 29.68 in 10.0 mi WSW 24.2 mph 38.0 mph N/A   Mostly Cloudy
2:54 PM 51.1 °F - 32.0 °F 48% 29.68 in 10.0 mi West 25.3 mph 41.4 mph N/A   Scattered Clouds
3:54 PM 53.1 °F - 30.0 °F 41% 29.69 in 10.0 mi WSW 18.4 mph 40.3 mph N/A   Scattered Clouds
4:54 PM 54.0 °F - 28.0 °F 37% 29.70 in 10.0 mi West 31.1 mph 44.9 mph N/A   Scattered Clouds
5:54 PM 53.6 °F - 26.6 °F 35% 29.71 in 10.0 mi West 19.6 mph 38.0 mph N/A   Clear
6:54 PM 52.0 °F - 26.1 °F 37% 29.76 in 10.0 mi West 23.0 mph 32.2 mph N/A   Clear
7:54 PM 51.1 °F - 27.0 °F 39% 29.79 in 10.0 mi West 18.4 mph 29.9 mph N/A   Clear
8:54 PM 48.9 °F - 28.0 °F 44% 29.83 in 10.0 mi West 12.7 mph - N/A   Partly Cloudy
9:54 PM 48.9 °F - 28.9 °F 46% 29.86 in 10.0 mi WSW 13.8 mph 21.9 mph N/A   Mostly Cloudy
10:54 PM 48.9 °F - 30.9 °F 50% 29.87 in 10.0 mi WSW 12.7 mph 20.7 mph N/A   Overcast
11:54 PM 48.9 °F - 30.9 °F 50% 29.89 in 10.0 mi West 15.0 mph 23.0 mph N/A   Mostly Cloudy